Weather in Brunswick

Germany     52°16′07″N   10°31′30″E
temp.,
°C
wind,
m/s
gust,
m/s
humid.,
%
clouds,
%
prec.,
mm/h
press.,
hPa
HPBL,
m
17 june, thu
thu1723:00+20se4108699 0.0 1014163
02:00+18se4109123 0.0 1013158
05:00+18se33889 0.0 101344
08:00+23se24785 0.0 1013137
11:00+29sse35545 0.0 10131073
14:00+31sse35485 0.0 10132218
17:00+30sse35565 0.0 10131847
20:00+25se511755 0.0 1013259
18 june, fri
fri1823:00+21se48772 0.0 1013101
02:00+20se34740 0.0 101351
05:00+18sse22790 0.0 101315
08:00+22sse12730 0.0 1013105
11:00+27sw22633 0.0 1013595
14:00+29se11565 0.0 1012949
17:00+30se225517 0.0 10121171
20:00+20ssw018990 1.8 101249
19 june, sat
sat1923:00+20sse34845 0.1 101248
02:00+19w4888100 0.1 1014147
05:00+18sw2295100 0.3 101433
08:00+21wsw48880 0.3 1015583
11:00+23wsw677295 0.0 10161014
14:00+23w5667100 0.0 10161088
17:00+24wnw446497 0.0 10161068
20:00+21nnw247925 0.0 1016134
20 june, sun
sun2023:00+17ne37885 0.0 1016130
02:00+14e499155 0.0 1015198
05:00+14e39959 0.0 1012204
08:00+19ese6128755 0.0 1010390
11:00+24ese71179100 0.0 1009521
14:00+27wsw3568100 2.9 1009684
17:00+25nw356675 0.7 1009363
20:00+22wsw3781100 0.9 1007219
21 june, mon
mon2123:00+17sw4994100 1.1 1009294
02:00+17w1398100 4.4 1008152
05:00+17ssw1298100 6.1 1006111
08:00+18sw368750 6.6 1007321
11:00+23sw337432 0.0 1007856
14:00+25wsw23637 0.3 10061323
17:00+24sse23745 1.3 1006548
20:00+22w128771 3.6 1006128